EJU95HP LEPA-EGPH

Flight info

Callsign EJU95HP
Flight time 2h 47m
Altitude 36000
Route DRAGO DCT PAPOS DCT UMURE N863 GIROM DCT GONUP DCT TUPAR UN861 ANG DCT AKIKI UN867 VASUX DCT TNT UN57 POL UN601 RIBEL DCT INPIP
Aircraft A320/M-SDE2E3FGHIJ1RWXYZ/LB1

Departure

Time 2026-05-05 12:46
Airport Palma de Mallorca Airport (LEPA)

Arrival

Time 2026-05-05 15:33
Airport Edinburgh Airport (EGPH)
Time Latitude Longitude Altitude Speed Heading
2026-05-05 12:14 39.54758 2.73632 37 ft 0 kts 58°
2026-05-05 12:28 39.54754 2.73625 38 ft 4 kts 59°
2026-05-05 12:29 39.54742 2.73594 37 ft 4 kts 75°
2026-05-05 12:29 39.54740 2.73561 37 ft 4 kts 116°
2026-05-05 12:29 39.54748 2.73548 35 ft 0 kts 149°
2026-05-05 12:32 39.54730 2.73562 35 ft 5 kts 148°
2026-05-05 12:32 39.54688 2.73594 37 ft 9 kts 150°
2026-05-05 12:32 39.54658 2.73666 38 ft 11 kts 71°
2026-05-05 12:32 39.54703 2.73766 38 ft 13 kts 59°
2026-05-05 12:33 39.54747 2.73860 38 ft 12 kts 54°
2026-05-05 12:33 39.54788 2.73942 38 ft 10 kts 59°
2026-05-05 12:33 39.54833 2.73998 38 ft 8 kts 13°
2026-05-05 12:33 39.54882 2.73974 38 ft 8 kts 329°
2026-05-05 12:34 39.54934 2.73974 38 ft 9 kts 46°
2026-05-05 12:34 39.54977 2.74004 38 ft 8 kts 335°
2026-05-05 12:34 39.55026 2.73969 38 ft 10 kts 330°
2026-05-05 12:34 39.55093 2.73916 38 ft 10 kts 328°
2026-05-05 12:35 39.55164 2.73862 38 ft 10 kts 328°
2026-05-05 12:35 39.55235 2.73806 38 ft 13 kts 329°
2026-05-05 12:35 39.55306 2.73749 38 ft 11 kts 328°
2026-05-05 12:35 39.55368 2.73698 38 ft 10 kts 328°
2026-05-05 12:36 39.55426 2.73652 38 ft 9 kts 328°
2026-05-05 12:36 39.55488 2.73604 36 ft 13 kts 330°
2026-05-05 12:36 39.55541 2.73564 38 ft 7 kts 330°
2026-05-05 12:36 39.55579 2.73536 38 ft 6 kts 330°
2026-05-05 12:37 39.55610 2.73512 37 ft 5 kts 330°
2026-05-05 12:37 39.55639 2.73503 37 ft 5 kts
2026-05-05 12:37 39.55668 2.73533 38 ft 6 kts 50°
2026-05-05 12:37 39.55697 2.73588 37 ft 9 kts 58°
2026-05-05 12:38 39.55726 2.73652 37 ft 7 kts 59°
2026-05-05 12:38 39.55755 2.73713 38 ft 9 kts 56°
2026-05-05 12:38 39.55791 2.73789 38 ft 11 kts 59°
2026-05-05 12:38 39.55825 2.73863 37 ft 9 kts 59°
2026-05-05 12:39 39.55858 2.73933 38 ft 9 kts 58°
2026-05-05 12:39 39.55887 2.73994 37 ft 7 kts 58°
2026-05-05 12:39 39.55910 2.74043 36 ft 5 kts 58°
2026-05-05 12:39 39.55929 2.74081 38 ft 5 kts 58°
2026-05-05 12:40 39.55946 2.74118 38 ft 5 kts 59°
2026-05-05 12:40 39.55959 2.74148 37 ft 3 kts 60°
2026-05-05 12:40 39.55969 2.74170 38 ft 3 kts 60°
2026-05-05 12:40 39.55978 2.74190 38 ft 2 kts 61°
2026-05-05 12:41 39.55997 2.74233 36 ft 7 kts 59°
2026-05-05 12:41 39.56022 2.74286 38 ft 8 kts 58°
2026-05-05 12:41 39.56054 2.74349 36 ft 8 kts 57°
2026-05-05 12:41 39.56080 2.74399 38 ft 5 kts 56°
2026-05-05 12:42 39.56098 2.74432 38 ft 4 kts 50°
2026-05-05 12:42 39.56116 2.74446 38 ft 3 kts 25°
2026-05-05 12:42 39.56135 2.74451 38 ft 2 kts
2026-05-05 12:42 39.56161 2.74448 38 ft 8 kts 345°
2026-05-05 12:43 39.56225 2.74403 38 ft 11 kts 327°
2026-05-05 12:43 39.56260 2.74339 38 ft 7 kts 263°
2026-05-05 12:43 39.56252 2.74319 38 ft 0 kts 238°
2026-05-05 12:45 39.56203 2.74216 38 ft 43 kts 238°
2026-05-05 12:45 39.55929 2.73639 38 ft 105 kts 238°
2026-05-05 12:45 39.55458 2.72642 39 ft 152 kts 238°
2026-05-05 12:45 39.54845 2.71357 311 ft 172 kts 238°
2026-05-05 12:46 39.54212 2.70081 1034 ft 170 kts 234°
2026-05-05 12:46 39.53555 2.68780 1621 ft 179 kts 234°
2026-05-05 12:46 39.52829 2.67350 1889 ft 199 kts 236°
2026-05-05 12:46 39.52051 2.65813 2359 ft 209 kts 235°
2026-05-05 12:47 39.51254 2.64241 3125 ft 208 kts 236°
2026-05-05 12:47 39.50449 2.62653 3782 ft 213 kts 236°
2026-05-05 12:47 39.49637 2.61054 4515 ft 213 kts 237°
2026-05-05 12:47 39.48816 2.59448 5210 ft 214 kts 236°
2026-05-05 12:48 39.47993 2.57834 5897 ft 216 kts 236°
2026-05-05 12:48 39.47173 2.56226 6574 ft 217 kts 237°
2026-05-05 12:48 39.46342 2.54594 7242 ft 218 kts 237°
2026-05-05 12:48 39.45504 2.52947 7910 ft 220 kts 238°
2026-05-05 12:49 39.44966 2.51054 8301 ft 239 kts 268°
2026-05-05 12:49 39.45463 2.48901 8581 ft 269 kts 303°
2026-05-05 12:49 39.46810 2.47124 9144 ft 283 kts 316°
2026-05-05 12:49 39.48397 2.45561 9868 ft 289 kts 321°
2026-05-05 12:50 39.50080 2.44044 10296 ft 305 kts 321°
2026-05-05 12:50 39.51880 2.42413 10474 ft 327 kts 321°
2026-05-05 12:50 39.53738 2.40684 10939 ft 337 kts 320°
2026-05-05 12:50 39.55546 2.38750 11570 ft 338 kts 310°
2026-05-05 12:51 39.57191 2.36565 12273 ft 340 kts 309°
2026-05-05 12:51 39.58834 2.34341 12981 ft 342 kts 309°
2026-05-05 12:51 39.60475 2.32090 13644 ft 345 kts 308°
2026-05-05 12:51 39.62128 2.29810 14236 ft 348 kts 308°
2026-05-05 12:52 39.63792 2.27521 14873 ft 349 kts 308°
2026-05-05 12:52 39.65468 2.25227 15491 ft 351 kts 308°
2026-05-05 12:52 39.67133 2.22956 16096 ft 353 kts 307°
2026-05-05 12:52 39.68832 2.20639 16691 ft 355 kts 307°
2026-05-05 12:53 39.70537 2.18305 17279 ft 357 kts 307°
2026-05-05 12:53 39.72250 2.15958 17864 ft 359 kts 307°
2026-05-05 12:53 39.73970 2.13591 18409 ft 361 kts 306°
2026-05-05 12:53 39.75703 2.11209 18890 ft 364 kts 306°
2026-05-05 12:54 39.79208 2.06399 19880 ft 369 kts 306°
2026-05-05 12:54 39.80954 2.03996 20318 ft 372 kts 306°
2026-05-05 12:54 39.82736 2.01540 20775 ft 374 kts 306°
2026-05-05 12:55 39.84527 1.99071 21227 ft 377 kts 306°
2026-05-05 12:55 39.86332 1.96583 21676 ft 379 kts 306°
2026-05-05 12:55 39.88141 1.94082 22119 ft 381 kts 305°
2026-05-05 12:55 39.89965 1.91555 22559 ft 384 kts 305°
2026-05-05 12:56 39.91797 1.89017 23028 ft 386 kts 305°
2026-05-05 12:56 39.93639 1.86467 23468 ft 388 kts 305°
2026-05-05 12:56 39.95469 1.83930 23834 ft 390 kts 305°
2026-05-05 12:56 39.97327 1.81350 24175 ft 392 kts 304°
2026-05-05 12:57 39.99225 1.78779 24520 ft 397 kts 309°
2026-05-05 12:57 40.01455 1.76553 24857 ft 411 kts 320°
2026-05-05 12:57 40.04061 1.74862 25190 ft 426 kts 329°
2026-05-05 12:57 40.06836 1.73456 25494 ft 429 kts 329°
2026-05-05 12:58 40.09628 1.72039 25814 ft 431 kts 329°
2026-05-05 12:58 40.12429 1.70613 26138 ft 433 kts 329°
2026-05-05 12:58 40.15244 1.69166 26442 ft 435 kts 329°
2026-05-05 12:58 40.18067 1.67705 26761 ft 437 kts 328°
2026-05-05 12:59 40.20864 1.66255 27065 ft 439 kts 328°
2026-05-05 12:59 40.23712 1.64782 27372 ft 442 kts 328°
2026-05-05 12:59 40.26585 1.63301 27685 ft 445 kts 328°
2026-05-05 13:00 40.32379 1.60325 28254 ft 450 kts 328°
2026-05-05 13:00 40.35302 1.58821 28543 ft 452 kts 328°
2026-05-05 13:01 40.44130 1.54247 29382 ft 458 kts 328°
2026-05-05 13:01 40.47056 1.52729 29689 ft 460 kts 327°
2026-05-05 13:01 40.50039 1.51180 29933 ft 462 kts 327°
2026-05-05 13:01 40.53037 1.49623 30146 ft 464 kts 327°
2026-05-05 13:02 40.56047 1.48059 30360 ft 466 kts 327°
2026-05-05 13:02 40.59063 1.46491 30628 ft 466 kts 327°
2026-05-05 13:02 40.62079 1.44926 30946 ft 465 kts 327°
2026-05-05 13:02 40.65080 1.43369 31257 ft 464 kts 327°
2026-05-05 13:03 40.68083 1.41807 31560 ft 463 kts 327°
2026-05-05 13:03 40.71035 1.40263 31857 ft 462 kts 327°
2026-05-05 13:03 40.74016 1.38699 32163 ft 461 kts 327°
2026-05-05 13:03 40.76999 1.37130 32460 ft 461 kts 327°
2026-05-05 13:04 40.79976 1.35567 32765 ft 460 kts 327°
2026-05-05 13:04 40.82947 1.34010 33055 ft 459 kts 327°
2026-05-05 13:04 40.85915 1.32453 33356 ft 459 kts 327°
2026-05-05 13:04 40.88876 1.30896 33653 ft 458 kts 327°
2026-05-05 13:05 40.91833 1.29338 33982 ft 458 kts 328°
2026-05-05 13:05 40.94791 1.27781 34207 ft 457 kts 328°
2026-05-05 13:05 40.97705 1.26246 34445 ft 457 kts 328°
2026-05-05 13:05 41.00655 1.24691 34696 ft 456 kts 328°
2026-05-05 13:06 41.03596 1.23140 34937 ft 455 kts 328°
2026-05-05 13:06 41.06537 1.21587 35169 ft 454 kts 328°
2026-05-05 13:06 41.09466 1.20038 35402 ft 453 kts 328°
2026-05-05 13:06 41.12388 1.18494 35624 ft 453 kts 329°
2026-05-05 13:07 41.15447 1.17285 35846 ft 464 kts 339°
2026-05-05 13:07 41.18683 1.16701 35915 ft 473 kts 347°
2026-05-05 13:07 41.25190 1.16063 35923 ft 471 kts 347°
2026-05-05 13:08 41.31724 1.15375 35923 ft 471 kts 347°
2026-05-05 13:08 41.38253 1.14675 35924 ft 470 kts 347°
2026-05-05 13:09 41.44797 1.13993 35926 ft 473 kts 347°
2026-05-05 13:09 41.51362 1.13305 35929 ft 473 kts 347°
2026-05-05 13:10 41.57884 1.12615 35952 ft 473 kts 347°
2026-05-05 13:10 41.64452 1.11910 35941 ft 474 kts 347°
2026-05-05 13:11 41.71022 1.11211 35944 ft 474 kts 348°
2026-05-05 13:11 41.77601 1.10519 35991 ft 474 kts 348°
2026-05-05 13:12 41.84133 1.09831 35983 ft 474 kts 348°
2026-05-05 13:12 41.90712 1.09130 35979 ft 474 kts 348°
2026-05-05 13:13 41.97290 1.08419 35978 ft 474 kts 348°
2026-05-05 13:13 42.03869 1.07710 35990 ft 474 kts 348°
2026-05-05 13:14 42.10445 1.07010 35971 ft 474 kts 348°
2026-05-05 13:14 42.16977 1.06307 35961 ft 474 kts 348°
2026-05-05 13:15 42.23545 1.05602 35959 ft 473 kts 348°
2026-05-05 13:15 42.30110 1.04894 35948 ft 473 kts 348°
2026-05-05 13:16 42.36668 1.04182 35937 ft 472 kts 348°
2026-05-05 13:16 42.43222 1.03470 35957 ft 472 kts 349°
2026-05-05 13:17 42.49719 1.02758 35949 ft 472 kts 349°
2026-05-05 13:17 42.56261 1.02039 35948 ft 472 kts 349°
2026-05-05 13:18 42.62805 1.01336 35972 ft 471 kts 349°
2026-05-05 13:18 42.69332 1.00630 35968 ft 470 kts 349°
2026-05-05 13:19 42.75815 0.99909 35963 ft 470 kts 348°
2026-05-05 13:19 42.82123 0.98141 35966 ft 461 kts 339°
2026-05-05 13:20 42.88337 0.95991 35973 ft 461 kts 339°
2026-05-05 13:20 42.94546 0.93847 35966 ft 461 kts 339°
2026-05-05 13:21 43.00760 0.91705 35962 ft 461 kts 339°
2026-05-05 13:21 43.06937 0.89570 35988 ft 461 kts 340°
2026-05-05 13:22 43.13153 0.87409 35995 ft 461 kts 340°
2026-05-05 13:22 43.19364 0.85250 35981 ft 460 kts 340°
2026-05-05 13:23 43.25573 0.83090 35994 ft 460 kts 340°
2026-05-05 13:23 43.31777 0.80926 35988 ft 460 kts 340°
2026-05-05 13:24 43.37932 0.78762 35983 ft 460 kts 340°
2026-05-05 13:24 43.44127 0.76576 35996 ft 460 kts 340°
2026-05-05 13:25 43.50272 0.74200 36005 ft 457 kts 338°
2026-05-05 13:25 43.56284 0.71413 35991 ft 455 kts 336°
2026-05-05 13:26 43.62221 0.68554 35982 ft 455 kts 336°
2026-05-05 13:26 43.68225 0.65762 35985 ft 456 kts 337°
2026-05-05 13:27 43.74249 0.63030 35976 ft 456 kts 338°
2026-05-05 13:27 43.80270 0.60294 35970 ft 456 kts 337°
2026-05-05 13:28 43.86248 0.57547 35982 ft 456 kts 337°
2026-05-05 13:28 43.92267 0.54772 35977 ft 456 kts 338°
2026-05-05 13:29 43.98290 0.51996 35977 ft 456 kts 337°
2026-05-05 13:29 44.04310 0.49211 35989 ft 456 kts 338°
2026-05-05 13:30 44.10332 0.46418 35985 ft 456 kts 338°
2026-05-05 13:30 44.16311 0.43632 35982 ft 456 kts 338°
2026-05-05 13:31 44.22328 0.40827 35979 ft 456 kts 338°
2026-05-05 13:31 44.28345 0.38030 35993 ft 456 kts 338°
2026-05-05 13:32 44.34358 0.35226 35966 ft 456 kts 338°
2026-05-05 13:32 44.40332 0.32428 35964 ft 456 kts 338°
2026-05-05 13:33 44.46343 0.29607 35968 ft 456 kts 338°
2026-05-05 13:33 44.52350 0.26764 35964 ft 456 kts 338°
2026-05-05 13:34 44.58354 0.23921 35958 ft 456 kts 338°
2026-05-05 13:34 44.64371 0.21089 35959 ft 456 kts 338°
2026-05-05 13:35 44.70343 0.18268 35957 ft 456 kts 338°
2026-05-05 13:35 44.76352 0.15409 35958 ft 456 kts 338°
2026-05-05 13:36 44.82355 0.12553 35950 ft 455 kts 338°
2026-05-05 13:36 44.88353 0.09699 35950 ft 455 kts 338°
2026-05-05 13:37 44.94314 0.06843 35947 ft 455 kts 338°
2026-05-05 13:37 45.00311 0.03971 35945 ft 455 kts 339°
2026-05-05 13:38 45.06309 0.01100 35948 ft 455 kts 339°
2026-05-05 13:38 45.12295 -0.01779 35958 ft 454 kts 339°
2026-05-05 13:39 45.18272 -0.04663 35951 ft 454 kts 339°
2026-05-05 13:39 45.24205 -0.07540 35947 ft 454 kts 339°
2026-05-05 13:40 45.30181 -0.10436 35948 ft 454 kts 339°
2026-05-05 13:40 45.36165 -0.13335 35944 ft 454 kts 339°
2026-05-05 13:41 45.42141 -0.16245 35918 ft 454 kts 339°
2026-05-05 13:41 45.48076 -0.19137 35918 ft 454 kts 340°
2026-05-05 13:42 45.54053 -0.22049 35921 ft 454 kts 339°
2026-05-05 13:42 45.60029 -0.24981 35915 ft 454 kts 339°
2026-05-05 13:43 45.66011 -0.27928 35914 ft 455 kts 340°
2026-05-05 13:43 45.71998 -0.30868 35897 ft 455 kts 340°
2026-05-05 13:44 45.77948 -0.33786 35899 ft 455 kts 339°
2026-05-05 13:44 45.83938 -0.36750 35894 ft 456 kts 339°
2026-05-05 13:45 45.89934 -0.39725 35891 ft 456 kts 339°
2026-05-05 13:45 45.95935 -0.42714 35882 ft 457 kts 340°
2026-05-05 13:46 46.01901 -0.45688 35888 ft 457 kts 340°
2026-05-05 13:46 46.07909 -0.48687 35888 ft 457 kts 340°
2026-05-05 13:47 46.13922 -0.51687 35887 ft 458 kts 340°
2026-05-05 13:47 46.19938 -0.54690 35898 ft 457 kts 340°
2026-05-05 13:48 46.25946 -0.57706 35887 ft 457 kts 340°
2026-05-05 13:48 46.31914 -0.60712 35897 ft 457 kts 340°
2026-05-05 13:49 46.37919 -0.63739 35886 ft 457 kts 340°
2026-05-05 13:49 46.43998 -0.66408 35887 ft 457 kts 350°
2026-05-05 13:50 46.50308 -0.67513 35885 ft 457 kts 353°
2026-05-05 13:50 46.56589 -0.68555 35881 ft 457 kts 353°
2026-05-05 13:51 46.62909 -0.69624 35877 ft 457 kts 354°
2026-05-05 13:51 46.69223 -0.70689 35870 ft 457 kts 354°
2026-05-05 13:52 46.75542 -0.71757 35878 ft 457 kts 354°
2026-05-05 13:52 46.81855 -0.72829 35869 ft 457 kts 353°
2026-05-05 13:53 46.88122 -0.73896 35872 ft 457 kts 354°
2026-05-05 13:53 46.94428 -0.74975 35874 ft 456 kts 353°
2026-05-05 13:54 47.00734 -0.76054 35871 ft 456 kts 354°
2026-05-05 13:54 47.07034 -0.77124 35871 ft 456 kts 354°
2026-05-05 13:55 47.13296 -0.78190 35875 ft 456 kts 354°
2026-05-05 13:55 47.19591 -0.79264 35873 ft 455 kts 354°
2026-05-05 13:56 47.25879 -0.80360 35876 ft 455 kts 354°
2026-05-05 13:56 47.32160 -0.81455 35871 ft 454 kts 354°
2026-05-05 13:57 47.38392 -0.82527 35867 ft 454 kts 354°
2026-05-05 13:57 47.44656 -0.83604 35885 ft 453 kts 354°
2026-05-05 13:58 47.50903 -0.84688 35878 ft 451 kts 354°
2026-05-05 13:58 47.57129 -0.85905 35874 ft 451 kts 352°
2026-05-05 13:59 47.66344 -0.88448 35867 ft 452 kts 350°
2026-05-05 14:00 47.74574 -0.90752 35859 ft 452 kts 351°
2026-05-05 14:00 47.81807 -0.92656 35860 ft 452 kts 351°
2026-05-05 14:01 47.87950 -0.94273 35859 ft 452 kts 351°
2026-05-05 14:01 47.94142 -0.95924 35862 ft 453 kts 351°
2026-05-05 14:02 48.00355 -0.97587 35897 ft 455 kts 351°
2026-05-05 14:02 48.06582 -0.99265 35893 ft 454 kts 351°
2026-05-05 14:03 48.12781 -1.00956 35868 ft 451 kts 351°
2026-05-05 14:03 48.18905 -1.02622 35869 ft 449 kts 351°
2026-05-05 14:04 48.25062 -1.04283 35869 ft 450 kts 351°
2026-05-05 14:04 48.31227 -1.05954 35878 ft 450 kts 351°
2026-05-05 14:05 48.37396 -1.07635 35887 ft 450 kts 351°
2026-05-05 14:05 48.43566 -1.09315 35886 ft 451 kts 351°
2026-05-05 14:06 48.49694 -1.10993 35891 ft 451 kts 351°
2026-05-05 14:06 48.55874 -1.12687 35891 ft 451 kts 351°
2026-05-05 14:07 48.62059 -1.14377 35897 ft 452 kts 351°
2026-05-05 14:07 48.68249 -1.16089 35892 ft 453 kts 351°
2026-05-05 14:08 48.74452 -1.17816 35902 ft 453 kts 351°
2026-05-05 14:08 48.80618 -1.19529 35901 ft 454 kts 351°
2026-05-05 14:09 48.86831 -1.21254 35912 ft 454 kts 351°
2026-05-05 14:09 48.93049 -1.22983 35921 ft 454 kts 351°
2026-05-05 14:10 48.99271 -1.24720 35925 ft 455 kts 351°
2026-05-05 14:10 49.05451 -1.26453 35927 ft 454 kts 351°
2026-05-05 14:11 49.11674 -1.28195 35923 ft 455 kts 350°
2026-05-05 14:11 49.17891 -1.29943 35924 ft 454 kts 350°
2026-05-05 14:12 49.24071 -1.31689 35928 ft 455 kts 350°
2026-05-05 14:12 49.30293 -1.33453 35937 ft 455 kts 350°
2026-05-05 14:13 49.36516 -1.35214 35944 ft 455 kts 349°
2026-05-05 14:13 49.42736 -1.36979 35948 ft 454 kts 349°
2026-05-05 14:14 49.48956 -1.38751 35953 ft 455 kts 349°
2026-05-05 14:14 49.55174 -1.40528 35945 ft 455 kts 349°
2026-05-05 14:15 49.61402 -1.41482 35953 ft 453 kts
2026-05-05 14:15 49.67681 -1.40919 35951 ft 452 kts
2026-05-05 14:16 49.73964 -1.40354 35945 ft 452 kts
2026-05-05 14:16 49.80234 -1.39803 35964 ft 451 kts
2026-05-05 14:17 49.86445 -1.39255 35970 ft 450 kts
2026-05-05 14:17 49.92684 -1.38701 35965 ft 449 kts
2026-05-05 14:18 49.98909 -1.38145 35967 ft 448 kts
2026-05-05 14:18 50.05064 -1.36806 35971 ft 446 kts
2026-05-05 14:19 50.11198 -1.35277 35955 ft 447 kts
2026-05-05 14:19 50.17299 -1.33759 35950 ft 447 kts
2026-05-05 14:20 50.23445 -1.32231 35953 ft 447 kts
2026-05-05 14:20 50.29582 -1.30696 35958 ft 447 kts
2026-05-05 14:21 50.35719 -1.29154 35965 ft 446 kts
2026-05-05 14:21 50.41806 -1.27614 35954 ft 446 kts
2026-05-05 14:22 50.47933 -1.26064 35952 ft 446 kts
2026-05-05 14:22 50.54102 -1.26058 35954 ft 444 kts 353°
2026-05-05 14:23 50.60258 -1.27028 35953 ft 444 kts 354°
2026-05-05 14:23 50.66413 -1.27979 35962 ft 445 kts 353°
2026-05-05 14:24 50.72572 -1.28922 35964 ft 445 kts 353°
2026-05-05 14:24 50.78698 -1.29865 35968 ft 445 kts 353°
2026-05-05 14:25 50.84859 -1.30835 35975 ft 445 kts 353°
2026-05-05 14:25 50.91021 -1.31806 35974 ft 445 kts 353°
2026-05-05 14:26 50.97148 -1.32759 35975 ft 445 kts 353°
2026-05-05 14:26 51.03309 -1.33724 35975 ft 445 kts 353°
2026-05-05 14:27 51.09483 -1.34697 35970 ft 445 kts 353°
2026-05-05 14:27 51.15649 -1.35667 35972 ft 445 kts 353°
2026-05-05 14:28 51.21815 -1.36642 35971 ft 445 kts 353°
2026-05-05 14:28 51.27982 -1.37625 35968 ft 445 kts 353°
2026-05-05 14:29 51.34109 -1.38610 35962 ft 445 kts 353°
2026-05-05 14:29 51.40281 -1.39601 35963 ft 446 kts 353°
2026-05-05 14:30 51.46459 -1.40583 35963 ft 446 kts 353°
2026-05-05 14:30 51.52640 -1.41578 35967 ft 446 kts 353°
2026-05-05 14:31 51.58780 -1.42570 35973 ft 447 kts 353°
2026-05-05 14:31 51.64967 -1.43568 35975 ft 447 kts 353°
2026-05-05 14:32 51.71156 -1.44565 35977 ft 447 kts 353°
2026-05-05 14:32 51.77344 -1.45563 35982 ft 447 kts 353°
2026-05-05 14:33 51.83537 -1.46569 35990 ft 447 kts 353°
2026-05-05 14:33 51.89684 -1.47576 35991 ft 447 kts 353°
2026-05-05 14:34 51.95863 -1.48589 35987 ft 446 kts 353°
2026-05-05 14:34 52.02038 -1.49604 35989 ft 446 kts 353°
2026-05-05 14:35 52.08169 -1.50623 36014 ft 445 kts 353°
2026-05-05 14:35 52.14332 -1.51647 36020 ft 445 kts 353°
2026-05-05 14:36 52.20490 -1.52658 36021 ft 445 kts 353°
2026-05-05 14:36 52.26640 -1.53668 36017 ft 444 kts 353°
2026-05-05 14:37 52.31754 -1.54514 36023 ft 444 kts 353°
2026-05-05 14:37 52.38889 -1.55710 36021 ft 443 kts 353°
2026-05-05 14:38 52.45019 -1.56733 36022 ft 443 kts 353°
2026-05-05 14:38 52.50114 -1.57592 36018 ft 443 kts 353°
2026-05-05 14:39 52.56239 -1.58620 36042 ft 442 kts 353°
2026-05-05 14:39 52.62357 -1.59657 36042 ft 442 kts 353°
2026-05-05 14:40 52.69470 -1.60871 36041 ft 442 kts 352°
2026-05-05 14:40 52.74556 -1.61728 36018 ft 442 kts 353°
2026-05-05 14:41 52.80669 -1.62764 36023 ft 441 kts 353°
2026-05-05 14:41 52.86758 -1.63810 36024 ft 440 kts 353°
2026-05-05 14:42 52.92846 -1.64841 36025 ft 439 kts 353°
2026-05-05 14:42 52.98926 -1.65882 36022 ft 439 kts 353°
2026-05-05 14:43 53.04937 -1.67078 36026 ft 437 kts 346°
2026-05-05 14:43 53.10683 -1.70269 36022 ft 435 kts 338°
2026-05-05 14:44 53.16353 -1.73799 36019 ft 435 kts 339°
2026-05-05 14:44 53.22029 -1.77315 36016 ft 435 kts 338°
2026-05-05 14:45 53.27702 -1.80832 36023 ft 435 kts 338°
2026-05-05 14:45 53.33329 -1.84346 36009 ft 434 kts 338°
2026-05-05 14:46 53.38992 -1.87895 36019 ft 434 kts 338°
2026-05-05 14:46 53.44645 -1.91465 36012 ft 434 kts 338°
2026-05-05 14:47 53.50294 -1.95037 36021 ft 434 kts 338°
2026-05-05 14:47 53.55952 -1.98607 36024 ft 434 kts 338°
2026-05-05 14:48 53.61562 -2.02160 36022 ft 434 kts 338°
2026-05-05 14:48 53.67206 -2.05751 36024 ft 434 kts 338°
2026-05-05 14:49 53.72852 -2.09355 36037 ft 433 kts 337°
2026-05-05 14:49 53.78474 -2.13022 36038 ft 433 kts 336°
2026-05-05 14:50 53.84015 -2.16828 36041 ft 432 kts 336°
2026-05-05 14:50 53.89581 -2.20694 36037 ft 432 kts 336°
2026-05-05 14:51 53.95151 -2.24534 36033 ft 432 kts 336°
2026-05-05 14:51 54.00720 -2.28364 36042 ft 432 kts 335°
2026-05-05 14:52 54.06255 -2.32175 36044 ft 432 kts 335°
2026-05-05 14:52 54.11825 -2.36013 36041 ft 432 kts 335°
2026-05-05 14:53 54.17388 -2.39873 36029 ft 432 kts 335°
2026-05-05 14:53 54.22952 -2.43743 36045 ft 432 kts 335°
2026-05-05 14:54 54.28608 -2.47185 35952 ft 435 kts 347°
2026-05-05 14:54 54.31605 -2.47935 35433 ft 434 kts 350°
2026-05-05 14:54 54.34553 -2.48557 34962 ft 431 kts 349°
2026-05-05 14:55 54.37465 -2.49591 34495 ft 424 kts 341°
2026-05-05 14:55 54.40239 -2.51202 34027 ft 419 kts 335°
2026-05-05 14:55 54.42896 -2.53140 33516 ft 411 kts 325°
2026-05-05 14:55 54.45234 -2.55889 33005 ft 405 kts 320°
2026-05-05 14:56 54.47508 -2.58712 32520 ft 402 kts 320°
2026-05-05 14:56 54.49764 -2.61511 32073 ft 398 kts 320°
2026-05-05 14:56 54.52048 -2.64171 31626 ft 397 kts 327°
2026-05-05 14:56 54.54481 -2.66283 31157 ft 397 kts 331°
2026-05-05 14:57 54.57012 -2.68147 30697 ft 395 kts 334°
2026-05-05 14:57 54.59569 -2.69853 30251 ft 393 kts 335°
2026-05-05 14:57 54.62121 -2.71508 29749 ft 390 kts 335°
2026-05-05 14:57 54.64649 -2.73176 29228 ft 387 kts 334°
2026-05-05 14:58 54.67142 -2.74876 28724 ft 384 kts 333°
2026-05-05 14:58 54.69601 -2.76604 28251 ft 380 kts 333°
2026-05-05 14:58 54.72038 -2.78348 27780 ft 377 kts 333°
2026-05-05 14:58 54.74446 -2.80083 27348 ft 374 kts 333°
2026-05-05 14:59 54.76809 -2.81789 26904 ft 371 kts 333°
2026-05-05 14:59 54.79179 -2.83501 26588 ft 369 kts 333°
2026-05-05 14:59 54.81545 -2.85209 26332 ft 368 kts 333°
2026-05-05 14:59 54.83908 -2.86909 26106 ft 367 kts 333°
2026-05-05 15:00 54.86260 -2.88598 26045 ft 365 kts 334°
2026-05-05 15:00 54.87815 -2.89715 26038 ft 366 kts 333°
2026-05-05 15:00 54.90988 -2.92005 25311 ft 372 kts 333°
2026-05-05 15:00 54.93373 -2.93733 24798 ft 371 kts 333°
2026-05-05 15:01 54.95727 -2.95443 24286 ft 371 kts 334°
2026-05-05 15:01 54.98106 -2.97173 23776 ft 371 kts 334°
2026-05-05 15:01 55.00472 -2.98891 23480 ft 363 kts 334°
2026-05-05 15:01 55.02767 -3.00551 23191 ft 354 kts 334°
2026-05-05 15:02 55.05071 -3.02226 22297 ft 363 kts 334°
2026-05-05 15:02 55.07409 -3.03935 21680 ft 365 kts 334°
2026-05-05 15:02 55.09743 -3.05636 21262 ft 360 kts 334°
2026-05-05 15:02 55.12056 -3.07322 20769 ft 359 kts 334°
2026-05-05 15:03 55.14348 -3.08991 20250 ft 358 kts 334°
2026-05-05 15:03 55.16587 -3.10627 20056 ft 348 kts 334°
2026-05-05 15:03 55.18774 -3.12229 20045 ft 333 kts 333°
2026-05-05 15:03 55.20862 -3.13756 20052 ft 318 kts 333°
2026-05-05 15:04 55.22857 -3.15219 20070 ft 305 kts 334°
2026-05-05 15:04 55.24794 -3.16642 19852 ft 299 kts 333°
2026-05-05 15:04 55.26705 -3.18054 19544 ft 297 kts 333°
2026-05-05 15:04 55.28623 -3.19404 19220 ft 297 kts 339°
2026-05-05 15:05 55.32718 -3.19995 18602 ft 302 kts
2026-05-05 15:05 55.34807 -3.19657 18305 ft 301 kts
2026-05-05 15:05 55.36885 -3.19330 17958 ft 299 kts
2026-05-05 15:06 55.38954 -3.19009 17627 ft 297 kts
2026-05-05 15:06 55.41011 -3.18693 17307 ft 296 kts
2026-05-05 15:06 55.43051 -3.18378 16993 ft 294 kts
2026-05-05 15:06 55.45085 -3.18063 16707 ft 292 kts
2026-05-05 15:07 55.47103 -3.17747 16395 ft 291 kts
2026-05-05 15:07 55.49112 -3.17432 16158 ft 289 kts
2026-05-05 15:07 55.51106 -3.17116 15907 ft 287 kts
2026-05-05 15:07 55.53061 -3.16807 15614 ft 285 kts
2026-05-05 15:08 55.55031 -3.16496 15325 ft 284 kts
2026-05-05 15:08 55.56992 -3.16188 15069 ft 282 kts
2026-05-05 15:08 55.58941 -3.15883 14791 ft 281 kts
2026-05-05 15:08 55.60883 -3.15576 14548 ft 279 kts
2026-05-05 15:09 55.62817 -3.15269 14294 ft 278 kts
2026-05-05 15:09 55.64739 -3.14963 14032 ft 277 kts
2026-05-05 15:09 55.66654 -3.14659 13758 ft 276 kts
2026-05-05 15:09 55.68561 -3.14357 13473 ft 275 kts
2026-05-05 15:10 55.70434 -3.14058 13208 ft 272 kts
2026-05-05 15:10 55.72310 -3.13822 12948 ft 268 kts 355°
2026-05-05 15:10 55.74120 -3.14241 12681 ft 259 kts 338°
2026-05-05 15:10 55.75663 -3.15747 12393 ft 252 kts 315°
2026-05-05 15:11 55.76671 -3.18232 12086 ft 248 kts 291°
2026-05-05 15:11 55.76998 -3.21209 11767 ft 248 kts 269°
2026-05-05 15:11 55.76611 -3.24191 11467 ft 251 kts 246°
2026-05-05 15:11 55.75565 -3.26675 11165 ft 256 kts 224°
2026-05-05 15:12 55.74023 -3.28223 10852 ft 262 kts 202°
2026-05-05 15:12 55.72277 -3.29158 10549 ft 263 kts 199°
2026-05-05 15:12 55.70510 -3.29989 10257 ft 263 kts 199°
2026-05-05 15:12 55.68738 -3.30784 9962 ft 262 kts 198°
2026-05-05 15:13 55.66922 -3.31206 9629 ft 267 kts 179°
2026-05-05 15:13 55.65134 -3.30251 9300 ft 273 kts 151°
2026-05-05 15:13 55.63733 -3.28025 8975 ft 273 kts 124°
2026-05-05 15:13 55.63005 -3.24967 8646 ft 269 kts 97°
2026-05-05 15:14 55.63090 -3.21726 8342 ft 262 kts 71°
2026-05-05 15:14 55.63901 -3.18977 8114 ft 250 kts 44°
2026-05-05 15:14 55.65204 -3.17109 8086 ft 238 kts 21°
2026-05-05 15:14 55.66738 -3.16097 8097 ft 235 kts 12°
2026-05-05 15:15 55.68312 -3.15319 8083 ft 235 kts 11°
2026-05-05 15:15 55.69895 -3.14604 8088 ft 234 kts
2026-05-05 15:15 55.71474 -3.13903 8095 ft 234 kts 11°
2026-05-05 15:15 55.73062 -3.13735 8099 ft 227 kts 345°
2026-05-05 15:16 55.74474 -3.14889 8108 ft 224 kts 318°
2026-05-05 15:16 55.75397 -3.17059 8105 ft 221 kts 292°
2026-05-05 15:16 55.75631 -3.19730 8099 ft 223 kts 265°
2026-05-05 15:16 55.75117 -3.22316 8094 ft 231 kts 237°
2026-05-05 15:17 55.73904 -3.24206 8086 ft 239 kts 207°
2026-05-05 15:17 55.72296 -3.25095 8089 ft 243 kts 198°
2026-05-05 15:17 55.70656 -3.25852 8091 ft 244 kts 198°
2026-05-05 15:17 55.69014 -3.26602 8102 ft 244 kts 199°
2026-05-05 15:18 55.67362 -3.27315 8095 ft 246 kts 192°
2026-05-05 15:18 55.65666 -3.26964 8091 ft 251 kts 158°
2026-05-05 15:18 55.64308 -3.25032 8088 ft 255 kts 123°
2026-05-05 15:18 55.63741 -3.22151 8085 ft 255 kts 88°
2026-05-05 15:19 55.64128 -3.19168 8086 ft 247 kts 54°
2026-05-05 15:19 55.65293 -3.17060 8084 ft 238 kts 24°
2026-05-05 15:19 55.66829 -3.16116 8078 ft 233 kts
2026-05-05 15:19 55.68391 -3.15394 7801 ft 232 kts
2026-05-05 15:20 55.70004 -3.15270 7235 ft 235 kts 342°
2026-05-05 15:20 55.71378 -3.16640 7105 ft 225 kts 313°
2026-05-05 15:20 55.72180 -3.18928 6993 ft 220 kts 287°
2026-05-05 15:20 55.72332 -3.21592 6749 ft 220 kts 272°
2026-05-05 15:21 55.72497 -3.24260 6492 ft 216 kts 280°
2026-05-05 15:21 55.72781 -3.26868 6223 ft 214 kts 282°
2026-05-05 15:21 55.73081 -3.29437 6030 ft 209 kts 282°
2026-05-05 15:21 55.73359 -3.31902 5991 ft 197 kts 282°
2026-05-05 15:22 55.73610 -3.34233 5995 ft 190 kts 282°
2026-05-05 15:22 55.73850 -3.36531 6002 ft 189 kts 282°
2026-05-05 15:22 55.74081 -3.38819 5994 ft 188 kts 282°
2026-05-05 15:22 55.74309 -3.41107 5995 ft 188 kts 282°
2026-05-05 15:23 55.74532 -3.43372 5870 ft 191 kts 281°
2026-05-05 15:23 55.74758 -3.45702 5606 ft 192 kts 281°
2026-05-05 15:23 55.74980 -3.48035 5345 ft 192 kts 282°
2026-05-05 15:23 55.75202 -3.50381 5083 ft 192 kts 281°
2026-05-05 15:24 55.75420 -3.52719 4881 ft 191 kts 282°
2026-05-05 15:24 55.75639 -3.55058 4752 ft 193 kts 281°
2026-05-05 15:24 55.75859 -3.57407 4616 ft 194 kts 282°
2026-05-05 15:24 55.76079 -3.59772 4488 ft 194 kts 281°
2026-05-05 15:25 55.76299 -3.62142 4353 ft 195 kts 281°
2026-05-05 15:25 55.76523 -3.64544 4218 ft 199 kts 283°
2026-05-05 15:25 55.76949 -3.66798 4111 ft 194 kts 305°
2026-05-05 15:25 55.77766 -3.68668 4018 ft 192 kts 313°
2026-05-05 15:26 55.78626 -3.70467 3992 ft 191 kts 314°
2026-05-05 15:26 55.79490 -3.72261 3990 ft 190 kts 321°
2026-05-05 15:26 55.80594 -3.73407 3991 ft 184 kts 348°
2026-05-05 15:26 55.81852 -3.73423 3994 ft 180 kts 19°
2026-05-05 15:27 55.82919 -3.72355 4003 ft 177 kts 47°
2026-05-05 15:27 55.83616 -3.70581 4007 ft 176 kts 58°
2026-05-05 15:27 55.84253 -3.68722 4006 ft 178 kts 59°
2026-05-05 15:27 55.84877 -3.66899 3848 ft 171 kts 58°
2026-05-05 15:28 55.85490 -3.65112 3635 ft 167 kts 59°
2026-05-05 15:28 55.86086 -3.63375 3414 ft 162 kts 59°
2026-05-05 15:28 55.86656 -3.61715 3195 ft 153 kts 59°
2026-05-05 15:28 55.87205 -3.60113 2990 ft 150 kts 59°
2026-05-05 15:29 55.87743 -3.58542 2809 ft 148 kts 61°
2026-05-05 15:29 55.88272 -3.56995 2596 ft 144 kts 62°
2026-05-05 15:29 55.88793 -3.55471 2415 ft 142 kts 61°
2026-05-05 15:29 55.89303 -3.53981 2201 ft 138 kts 62°
2026-05-05 15:30 55.89783 -3.52577 2011 ft 133 kts 62°
2026-05-05 15:30 55.90266 -3.51159 1822 ft 132 kts 62°
2026-05-05 15:30 55.90741 -3.49767 1641 ft 133 kts 63°
2026-05-05 15:30 55.91219 -3.48367 1451 ft 133 kts 62°
2026-05-05 15:31 55.91698 -3.46960 1259 ft 132 kts 63°
2026-05-05 15:31 55.92172 -3.45566 1074 ft 133 kts 63°
2026-05-05 15:31 55.92645 -3.44178 871 ft 130 kts 63°
2026-05-05 15:31 55.93120 -3.42781 690 ft 134 kts 62°
2026-05-05 15:32 55.93600 -3.41370 506 ft 134 kts 60°
2026-05-05 15:32 55.94073 -3.39979 331 ft 130 kts 62°
2026-05-05 15:32 55.94550 -3.38583 154 ft 131 kts 61°
2026-05-05 15:32 55.94976 -3.37323 112 ft 98 kts 58°
2026-05-05 15:33 55.95237 -3.36556 111 ft 49 kts 58°
2026-05-05 15:33 55.95391 -3.36107 111 ft 38 kts 59°
2026-05-05 15:33 55.95512 -3.35741 113 ft 28 kts 58°
2026-05-05 15:33 55.95560 -3.35531 113 ft 15 kts 110°
2026-05-05 15:34 55.95488 -3.35425 114 ft 13 kts 148°
2026-05-05 15:34 55.95421 -3.35436 113 ft 10 kts 234°
2026-05-05 15:34 55.95386 -3.35531 113 ft 9 kts 235°
2026-05-05 15:34 55.95358 -3.35617 115 ft 7 kts 240°
2026-05-05 15:35 55.95334 -3.35690 114 ft 6 kts 239°
2026-05-05 15:35 55.95314 -3.35750 113 ft 5 kts 239°
2026-05-05 15:35 55.95292 -3.35815 115 ft 9 kts 239°
2026-05-05 15:35 55.95252 -3.35930 112 ft 12 kts 238°
2026-05-05 15:36 55.95194 -3.35972 113 ft 9 kts 160°
2026-05-05 15:36 55.95136 -3.35907 114 ft 13 kts 136°
2026-05-05 15:36 55.95068 -3.35787 115 ft 12 kts 183°
2026-05-05 15:36 55.95044 -3.35844 115 ft 6 kts 291°
2026-05-05 15:37 55.95046 -3.35904 115 ft 5 kts 252°
2026-05-05 15:37 55.95027 -3.35980 114 ft 6 kts 244°
2026-05-05 15:37 55.95014 -3.36027 114 ft 0 kts 244°